[[{"header":{"parameterUnit":"m.s-1","parameterCategory":1,"la1":30.2991,"la2":30.254,"lo1":-89.0895,"lo2":-89.0444,"dy":0.0017,"dx":0.0017,"nx":28,"ny":28,"refTime":"2024-10-20T09:00:00:Z","depth":0,"parameterNumber":2,"parameterNumberName":"U-component_of_WINDS"},"data":[0,0,0,0,0,0,0,0,0,0,0,0,0,0,0,0,0,0,0,0,0,0,0,0,0,0,0,0,0,0,0,0,0,0,0,0,0,0,0,0,0,0,0,0,0,0,0,0,0,0,0,0,0,0,0,0,0,0,-3.0251,-3.0251,0,-3.0207,-3.0207,-3.0206,-3.0108,-3.0106,-3.0104,-3.0102,-3.006,-3.0061,-3.0062,0,0,0,0,0,0,0,0,0,0,0,0,0,-3.0256,-3.0256,-3.0252,-3.0251,-3.025,-3.0207,-3.0207,-3.0206,-3.0108,-3.0106,-3.0104,-3.0101,-3.006,-3.0061,-3.0062,0,0,0,0,0,0,0,0,0,0,0,0,0,-3.0237,-3.0256,-3.0252,-3.0196,-3.0191,-3.0207,-3.0207,-3.0206,-3.0109,-3.0106,-3.0103,-3.01,-3.006,-3.0061,-3.0062,-3.0129,0,0,-3.0065,-3.0066,0,0,0,0,0,0,0,0,-3.0238,-3.0237,-3.0205,-3.02,-3.0194,-3.016,-3.0193,-3.018,-3.011,-3.014,-3.0102,-3.0099,-3.0096,-3.0094,-3.0092,-3.0127,-3.0125,-3.0065,-3.0066,-3.0067,-3.0067,0,0,0,0,0,0,0,-3.024,-3.0238,-3.0234,-3.0205,-3.0198,-3.0175,-3.0169,-3.019,-3.0136,-3.0137,-3.013,-3.0126,-3.0093,-3.0092,-3.0091,-3.0125,-3.0065,-3.0066,-3.0067,-3.0068,-3.0216,-3.0219,0,0,0,0,0,0,-3.0248,-3.024,-3.0235,-3.0233,-3.0209,-3.0178,-3.0171,-3.0174,-3.0135,-3.0126,-3.0129,-3.0122,-3.0091,-3.0089,-3.0089,-3.0167,-3.0067,-3.0068,-3.0068,-3.0213,-3.0217,-3.022,0,0,0,0,0,0,-3.0249,-3.0249,-3.0237,-3.0234,-3.0231,-3.0181,-3.0185,-3.0175,-3.0174,-3.0129,-3.0119,-3.0137,-3.0089,-3.0087,-3.012,-3.0165,-3.0068,-3.0069,-3.0209,-3.0214,-3.0218,-3.0324,0,0,0,0,0,0,-3.0249,-3.025,-3.0274,-3.0236,-3.0232,-3.0269,-3.0188,-3.0176,-3.0175,-3.0166,-3.0134,-3.0126,-3.0086,-3.0119,-3.0122,-3.0164,-3.007,-3.0205,-3.0211,-3.0217,-3.0316,-3.0332,-3.0345,0,0,0,0,0,-3.025,-3.0305,-3.0275,-3.0275,-3.026,-3.0271,-3.0269,-3.0221,-3.0179,-3.0204,-3.0175,-3.0127,-3.0159,-3.0123,-3.0125,-3.0169,-3.0202,-3.0209,-3.0216,-3.031,-3.0329,-3.0345,0,0,0,0,0,0,-3.0351,-3.0299,-3.0266,-3.031,-3.0296,-3.0255,-3.0284,-3.0242,-3.024,-3.0231,-3.0173,-3.0167,-3.0208,-3.0191,-3.0153,-3.0234,-3.0173,-3.0181,-3.0243,-3.0261,-3.0275,-3.0279,-3.0071,0,0,0,0,0,-3.0378,-3.039,-3.0344,-3.0388,-3.0383,-3.0335,-3.0338,-3.0302,-3.0285,-3.0279,-3.0252,-3.0239,-3.0246,-3.0252,-3.0256,-3.0313,-3.0306,-3.0344,-3.0359,-3.0371,-3.0379,-3.0411,-3.0428,-3.0244,-3.0244,-3.0244,0,0,-3.0435,-3.0408,-3.0419,-3.0408,-3.0392,-3.0408,-3.033,-3.0349,-3.0361,-3.0282,-3.0312,-3.0293,-3.0274,-3.032,-3.0339,-3.0307,-3.0428,-3.038,-3.039,-3.0392,-3.042,-3.0438,-3.0453,-3.0249,-3.0248,-3.0248,0,0,-3.0546,-3.0526,-3.0562,-3.0548,-3.0525,-3.0494,-3.0502,-3.0468,-3.0452,-3.0481,-3.0423,-3.0436,-3.0449,-3.0439,-3.0435,-3.0545,-3.0502,-3.0548,-3.0624,-3.0656,-3.067,-3.0683,-3.0725,-3.074,-3.0556,-3.0556,-3.0556,0,-3.062,-3.0639,-3.0585,-3.0608,-3.0606,-3.0535,-3.0572,-3.0561,-3.0542,-3.0543,-3.0508,-3.0524,-3.0506,-3.055,-3.0577,-3.0576,-3.0586,-3.0552,-3.0672,-3.0684,-3.0695,-3.0735,-3.075,-3.0562,-3.0561,-3.0561,-3.056,0,-3.0732,-3.0747,-3.0778,-3.0761,-3.0762,-3.0792,-3.0745,-3.0753,-3.0717,-3.069,-3.0722,-3.0698,-3.0697,-3.0704,-3.067,-3.0745,-3.0726,-3.0682,-3.062,-3.072,-3.0756,-3.077,-3.0571,-3.0569,-3.0567,-3.0565,0,0,-3.0907,-3.086,-3.0873,-3.0865,-3.0836,-3.0847,-3.0874,-3.0873,-3.0882,-3.0871,-3.0895,-3.0908,-3.0868,-3.0864,-3.0828,-3.0855,-3.0948,-3.0808,-3.0807,-3.0837,-3.1032,-3.1067,-3.1085,-3.0918,-3.092,-3.0922,-3.1034,0,-3.1013,-3.1057,-3.101,-3.1064,-3.1078,-3.1011,-3.1036,-3.1022,-3.0997,-3.1007,-3.098,-3.0992,-3.0936,-3.0934,-3.0958,-3.0931,-3.0986,-3.0922,-3.0942,-3.0943,-3.0951,-3.1104,-3.114,-3.1247,-3.1048,-3.105,-3.1052,0,-3.1143,-3.1139,-3.1195,-3.1164,-3.1168,-3.1191,-3.1187,-3.1196,-3.1179,-3.116,-3.1157,-3.1113,-3.114,-3.1078,-3.1117,-3.1074,-3.1079,-3.1068,-3.1071,-3.1073,-3.1005,-3.1112,-3.128,-3.1297,-3.1073,-3.1071,-3.107,0,-3.1268,-3.1276,-3.1311,-3.1306,-3.127,-3.1288,-3.1274,-3.1254,-3.1257,-3.1254,-3.1256,-3.1256,-3.1257,-3.126,-3.1218,-3.1177,-3.1263,-3.1197,-3.125,-3.1252,-3.1273,-3.1273,-3.1446,-3.1272,-3.1272,-3.1272,-3.1271,0,-3.1394,-3.1431,-3.1367,-3.1389,-3.1429,-3.1375,-3.1418,-3.1397,-3.1381,-3.1399,-3.1341,-3.1359,-3.1302,-3.1316,-3.1283,-3.1322,-3.1322,-3.1309,-3.1301,-3.1316,-3.1318,-3.132,-3.1313,-3.1276,-3.1275,-3.1274,-3.1273,0,-3.1541,-3.1499,-3.1533,-3.1496,-3.1488,-3.152,-3.149,-3.1509,-3.1481,-3.1505,-3.1508,-3.1464,-3.1477,-3.1435,-3.1441,-3.142,-3.1477,-3.1455,-3.1483,-3.1477,-3.1534,-3.153,-3.1717,-3.174,-3.1549,-3.1551,-3.1553,0,-3.1624,-3.1652,-3.1618,-3.1626,-3.1615,-3.1628,-3.1631,-3.1579,-3.1585,-3.1569,-3.1592,-3.16,-3.1603,-3.1628,-3.1598,-3.1603,-3.1582,-3.1647,-3.1583,-3.1598,-3.1587,-3.1587,-3.1591,-3.1662,-3.1664,-3.1666,-3.1668,0,-3.1779,-3.1757,-3.1762,-3.1762,-3.1767,-3.1764,-3.1757,-3.1767,-3.1712,-3.1721,-3.1733,-3.1736,-3.1743,-3.1753,-3.1752,-3.1739,-3.1696,-3.1688,-3.1701,-3.1718,-3.1734,-3.1729,-3.1523,-3.1684,-3.1683,-3.1681,-3.1681,-3.168,-3.1898,-3.1921,-3.1901,-3.191,-3.1899,-3.1895,-3.1913,-3.1887,-3.1895,-3.1896,-3.1866,-3.1885,-3.187,-3.1864,-3.1856,-3.1872,-3.1842,-3.1861,-3.1866,-3.1872,-3.1883,-3.173,-3.1871,-3.1871,-3.187,-3.187,-3.187,0,-3.2052,-3.2037,-3.2045,-3.2038,-3.2045,-3.2002,-3.1992,-3.2003,-3.202,-3.2009,-3.2014,-3.203,-3.2039,-3.201,-3.2016,-3.2035,-3.2016,-3.2039,-3.2038,-3.2037,-3.1907,-3.1897,-3.2055,-3.2055,-3.2055,-3.2055,-3.2054,-3.2054,-3.2133,-3.217,-3.2146,-3.2177,-3.2161,-3.2179,-3.2178,-3.2175,-3.2166,-3.2186,-3.2193,-3.2174,-3.2157,-3.2161,-3.2169,-3.216,-3.2167,-3.2198,-3.2183,-3.2063,-3.2045,-3.2028,-3.2018,-3.2199,-3.2199,-3.2311,-3.2312,-3.2313]},{"header":{"parameterUnit":"m.s-1","parameterCategory":1,"la1":30.2991,"la2":30.254,"lo1":-89.0895,"lo2":-89.0444,"dy":0.0017,"dx":0.0017,"nx":28,"ny":28,"refTime":"2024-10-20T09:00:00:Z","depth":0,"parameterNumber":3,"parameterNumberName":"V-component_of_WINDS"},"data":[0,0,0,0,0,0,0,0,0,0,0,0,0,0,0,0,0,0,0,0,0,0,0,0,0,0,0,0,0,0,0,0,0,0,0,0,0,0,0,0,0,0,0,0,0,0,0,0,0,0,0,0,0,0,0,0,0,0,-0.8621,-0.8622,0,-0.8651,-0.8651,-0.8652,-0.8644,-0.8644,-0.8643,-0.8643,-0.8675,-0.8676,-0.8677,0,0,0,0,0,0,0,0,0,0,0,0,0,-0.8559,-0.856,-0.8621,-0.8622,-0.8622,-0.8651,-0.8651,-0.8652,-0.8644,-0.8644,-0.8643,-0.8642,-0.8674,-0.8676,-0.8678,0,0,0,0,0,0,0,0,0,0,0,0,0,-0.8587,-0.8561,-0.8621,-0.8622,-0.8622,-0.8651,-0.8652,-0.8652,-0.8645,-0.8644,-0.8643,-0.8642,-0.8674,-0.8676,-0.8678,-0.8708,0,0,-0.8684,-0.8685,0,0,0,0,0,0,0,0,-0.8586,-0.859,-0.8621,-0.8622,-0.8622,-0.8643,-0.8641,-0.8671,-0.8645,-0.8636,-0.8643,-0.8642,-0.8665,-0.8668,-0.8675,-0.871,-0.8711,-0.8684,-0.8686,-0.8687,-0.8687,0,0,0,0,0,0,0,-0.8584,-0.8588,-0.8633,-0.8622,-0.8622,-0.8621,-0.8624,-0.8647,-0.8655,-0.8637,-0.8636,-0.864,-0.8665,-0.8673,-0.8676,-0.8712,-0.8684,-0.8686,-0.8688,-0.8688,-0.8775,-0.8776,0,0,0,0,0,0,-0.8581,-0.8587,-0.8632,-0.8634,-0.8601,-0.8623,-0.8626,-0.8637,-0.8655,-0.8657,-0.8641,-0.8639,-0.867,-0.8674,-0.8677,-0.8716,-0.8687,-0.8689,-0.869,-0.8774,-0.8775,-0.8776,0,0,0,0,0,0,-0.858,-0.8585,-0.8631,-0.861,-0.8616,-0.8625,-0.8637,-0.8638,-0.8647,-0.8658,-0.8659,-0.8648,-0.867,-0.8674,-0.8701,-0.8717,-0.869,-0.8691,-0.8772,-0.8774,-0.8775,-0.8792,0,0,0,0,0,0,-0.8578,-0.8585,-0.8596,-0.8611,-0.8617,-0.8654,-0.8638,-0.864,-0.865,-0.8649,-0.8665,-0.8666,-0.8669,-0.8698,-0.8703,-0.8719,-0.8693,-0.8771,-0.8773,-0.8775,-0.879,-0.8794,-0.8797,0,0,0,0,0,-0.8576,-0.86,-0.8597,-0.8603,-0.8631,-0.8655,-0.8659,-0.8661,-0.8651,-0.8663,-0.8671,-0.8666,-0.8714,-0.8701,-0.8706,-0.8723,-0.877,-0.8772,-0.8775,-0.8789,-0.8793,-0.8797,0,0,0,0,0,0,-0.8588,-0.8602,-0.8599,-0.8628,-0.864,-0.8653,-0.8669,-0.8666,-0.8681,-0.868,-0.8682,-0.8686,-0.8714,-0.8721,-0.8706,-0.8755,-0.8741,-0.8744,-0.8749,-0.8754,-0.8757,-0.8756,-0.8695,0,0,0,0,0,-0.8594,-0.8611,-0.8622,-0.8647,-0.8653,-0.866,-0.867,-0.8671,-0.8684,-0.8689,-0.8698,-0.8712,-0.873,-0.8742,-0.8759,-0.879,-0.8795,-0.8805,-0.8808,-0.8811,-0.8815,-0.8834,-0.8839,-0.8783,-0.8783,-0.8783,0,0,-0.8607,-0.8616,-0.8627,-0.865,-0.8659,-0.8678,-0.8664,-0.8684,-0.8699,-0.8692,-0.8719,-0.8726,-0.8741,-0.8771,-0.8784,-0.8777,-0.8831,-0.8814,-0.8816,-0.8819,-0.8837,-0.8842,-0.8847,-0.8785,-0.8785,-0.8784,0,0,-0.864,-0.8648,-0.867,-0.868,-0.8695,-0.8699,-0.8704,-0.8718,-0.8722,-0.8748,-0.8744,-0.8761,-0.8792,-0.8803,-0.8813,-0.885,-0.8847,-0.8855,-0.8875,-0.8893,-0.8898,-0.8902,-0.8917,-0.8922,-0.8859,-0.8859,-0.8859,0,-0.8654,-0.8682,-0.8682,-0.8703,-0.8714,-0.8708,-0.8731,-0.874,-0.876,-0.8768,-0.876,-0.8799,-0.8808,-0.8841,-0.8851,-0.8858,-0.8865,-0.8855,-0.8897,-0.8901,-0.8904,-0.8919,-0.8925,-0.886,-0.886,-0.886,-0.886,0,-0.8699,-0.8718,-0.8734,-0.8754,-0.8766,-0.8787,-0.8792,-0.8804,-0.8804,-0.8809,-0.8836,-0.8847,-0.8867,-0.8874,-0.8874,-0.8908,-0.8904,-0.8896,-0.8882,-0.8911,-0.8925,-0.893,-0.8861,-0.8861,-0.8861,-0.886,0,0,-0.8742,-0.8761,-0.8767,-0.8776,-0.8792,-0.8807,-0.8828,-0.8848,-0.8859,-0.8872,-0.8892,-0.8917,-0.8911,-0.8922,-0.8922,-0.8938,-0.8969,-0.8929,-0.8929,-0.8938,-0.9009,-0.9017,-0.9023,-0.8966,-0.8967,-0.8968,-0.9009,0,-0.8778,-0.8817,-0.8818,-0.8853,-0.8872,-0.8866,-0.8885,-0.8897,-0.8902,-0.8919,-0.8925,-0.8944,-0.8933,-0.894,-0.8955,-0.8962,-0.8984,-0.8959,-0.8986,-0.8987,-0.8985,-0.903,-0.9038,-0.9076,-0.9014,-0.9015,-0.9016,0,-0.8826,-0.8841,-0.8878,-0.8892,-0.89,-0.8917,-0.8935,-0.8951,-0.8964,-0.8967,-0.8979,-0.8978,-0.9001,-0.8985,-0.9017,-0.9,-0.9011,-0.9016,-0.9018,-0.9023,-0.9005,-0.9038,-0.9088,-0.9095,-0.9024,-0.9023,-0.9023,0,-0.8857,-0.8886,-0.8912,-0.892,-0.8936,-0.8948,-0.8956,-0.8968,-0.898,-0.8995,-0.9003,-0.9021,-0.9032,-0.9046,-0.905,-0.9037,-0.9083,-0.9067,-0.9088,-0.9088,-0.91,-0.9099,-0.9154,-0.9102,-0.9102,-0.9102,-0.9102,0,-0.8898,-0.8922,-0.8926,-0.8943,-0.897,-0.897,-0.8997,-0.9003,-0.9014,-0.9032,-0.9028,-0.9045,-0.9048,-0.9066,-0.9069,-0.9096,-0.91,-0.9105,-0.9106,-0.9106,-0.9106,-0.9115,-0.9114,-0.9104,-0.9103,-0.9103,-0.9103,0,-0.8938,-0.8942,-0.8971,-0.8983,-0.8987,-0.9006,-0.9017,-0.9033,-0.9037,-0.9061,-0.9066,-0.9073,-0.9095,-0.9099,-0.9124,-0.9126,-0.9159,-0.9156,-0.9155,-0.9156,-0.9177,-0.9176,-0.9242,-0.9251,-0.9191,-0.9192,-0.9192,0,-0.8966,-0.8984,-0.8998,-0.901,-0.9018,-0.9037,-0.9049,-0.905,-0.9062,-0.9079,-0.9094,-0.9114,-0.9131,-0.9165,-0.9173,-0.9193,-0.9192,-0.9213,-0.9195,-0.9196,-0.9195,-0.9195,-0.9198,-0.9218,-0.9219,-0.9219,-0.9219,0,-0.9015,-0.9016,-0.9033,-0.9051,-0.9066,-0.908,-0.9093,-0.9103,-0.9106,-0.9121,-0.9142,-0.9155,-0.9181,-0.9202,-0.9221,-0.9229,-0.9226,-0.9225,-0.9231,-0.9234,-0.9233,-0.9236,-0.9168,-0.9224,-0.9224,-0.9223,-0.9223,-0.9223,-0.9051,-0.9068,-0.9081,-0.91,-0.911,-0.9123,-0.914,-0.9146,-0.9163,-0.9184,-0.9184,-0.9208,-0.9221,-0.9247,-0.9256,-0.9275,-0.9269,-0.9277,-0.928,-0.9283,-0.9286,-0.9228,-0.9279,-0.9278,-0.9278,-0.9278,-0.9278,0,-0.9103,-0.9111,-0.9128,-0.9148,-0.9163,-0.9157,-0.9171,-0.9185,-0.9207,-0.9219,-0.9236,-0.9261,-0.9281,-0.929,-0.9311,-0.9325,-0.9324,-0.933,-0.9331,-0.9333,-0.929,-0.9283,-0.9331,-0.9331,-0.9331,-0.9331,-0.9331,-0.9331,-0.9132,-0.916,-0.9162,-0.9195,-0.9203,-0.9226,-0.9236,-0.9248,-0.9258,-0.9287,-0.9303,-0.9309,-0.932,-0.9342,-0.936,-0.9362,-0.9371,-0.9379,-0.9381,-0.9341,-0.9336,-0.9331,-0.9325,-0.9381,-0.9381,-0.9423,-0.9424,-0.9424]}]]